User: anonymous   Login
Location: Aix-en-Ergny
(50.5839°N, 1.9996°E)
Time: 21:54:33
(UTC+00:00)
Language:

NOSS 3-4 (C) - Orbit

View from above orbital plane
View from above orbital plane
View from above satellite
View from above satellite

Ground track
Ground track

The orbit data is extracted from the following two-line orbital elements,

1 31708U 07027C   19336.76197332 0.00000000  00000-0  00000-0 0    08
2 31708  63.4030 311.7922 0264578  20.2178 339.7822 13.40790215    00
Epoch (UTC): 02 December 2019 18:17:14
Eccentricity: 0.0264578
inclination: 63.4030°
perigee height: 908 km
apogee height: 1304 km
right ascension of ascending node: 311.7922°
argument of perigee: 20.2178°
revolutions per day: 13.40790215
mean anomaly at epoch: 339.7822°
orbit number at epoch: 0

The dashed part of the orbit path shows where the satellite is in the earth's shadow,  

DLR